Location: Arbon
(43.0005°N, 0.7472°E)
Time: 18:13:02
(UTC+00:00)

Cosmos 1975 Rocket - Pass Details

Date: 07 August 2020
Orbit: 603 x 634 km, 82.5° (Epoch: 23 September)

Event Time Altitude Azimuth Distance (km) Brightness Sun altitude
Rises 00:40:38 0° 349° (N) 2,942 7.5 -30.0°
Reaches altitude 10° 00:42:54 10° 347° (NNW) 2,029 6.5 -30.0°
Enters shadow 00:45:38 36° 337° (NNW) 1,012 4.4 -29.9°
